N850CB KVCT-KIAH

Flight info

Callsign N850CB
Flight time 0h 39m
Altitude 19000
Route DCT GMANN HTOWN3
Aircraft C700/L-SDE2E3FGHUTRWXY/LB1

Departure

Time 2026-05-05 20:28
Airport Victoria Regional Airport (KVCT)

Arrival

Time 2026-05-05 21:07
Airport George Bush Intercontinental Airport (KIAH)
Time Latitude Longitude Altitude Speed Heading
2026-05-05 20:08 28.84908 -96.92351 110 ft 0 kts 226°
2026-05-05 20:20 28.84888 -96.92366 110 ft 8 kts 192°
2026-05-05 20:20 28.84883 -96.92361 110 ft 0 kts 114°
2026-05-05 20:22 28.84925 -96.92308 109 ft 14 kts 339°
2026-05-05 20:22 28.85110 -96.92427 110 ft 41 kts 322°
2026-05-05 20:23 28.85313 -96.92613 110 ft 38 kts 321°
2026-05-05 20:23 28.85520 -96.92802 111 ft 39 kts 321°
2026-05-05 20:23 28.85735 -96.93001 112 ft 40 kts 323°
2026-05-05 20:23 28.85933 -96.93225 114 ft 44 kts 313°
2026-05-05 20:24 28.86136 -96.93481 116 ft 32 kts 312°
2026-05-05 20:24 28.86252 -96.93518 116 ft 17 kts 31°
2026-05-05 20:24 28.86302 -96.93470 116 ft 0 kts 43°
2026-05-05 20:26 28.86303 -96.93470 116 ft 1 kts 43°
2026-05-05 20:27 28.86325 -96.93447 113 ft 15 kts 40°
2026-05-05 20:27 28.86320 -96.93333 115 ft 21 kts 131°
2026-05-05 20:27 28.86039 -96.92987 113 ft 107 kts 132°
2026-05-05 20:27 28.85326 -96.92105 284 ft 188 kts 135°
2026-05-05 20:28 28.84307 -96.90802 772 ft 250 kts 134°
2026-05-05 20:28 28.83174 -96.89376 1603 ft 243 kts 135°
2026-05-05 20:28 28.81931 -96.87772 2100 ft 290 kts 133°
2026-05-05 20:28 28.80622 -96.86030 2592 ft 278 kts 133°
2026-05-05 20:29 28.79358 -96.84326 2980 ft 299 kts 133°
2026-05-05 20:29 28.77944 -96.82429 2994 ft 318 kts 133°
2026-05-05 20:29 28.76504 -96.80477 3004 ft 322 kts 133°
2026-05-05 20:29 28.75086 -96.78535 2998 ft 322 kts 133°
2026-05-05 20:30 28.73664 -96.76571 2996 ft 318 kts 133°
2026-05-05 20:30 28.72266 -96.74634 2995 ft 312 kts 132°
2026-05-05 20:30 28.70899 -96.72747 2984 ft 306 kts 132°
2026-05-05 20:30 28.69560 -96.70917 2980 ft 299 kts 133°
2026-05-05 20:31 28.68223 -96.69093 2980 ft 296 kts 133°
2026-05-05 20:31 28.66910 -96.67296 2986 ft 295 kts 133°
2026-05-05 20:31 28.65593 -96.65495 2986 ft 296 kts 133°
2026-05-05 20:31 28.64300 -96.63715 2984 ft 296 kts 133°
2026-05-05 20:32 28.62996 -96.61905 2985 ft 294 kts 133°
2026-05-05 20:32 28.61703 -96.60098 2981 ft 293 kts 133°
2026-05-05 20:32 28.60393 -96.58269 3770 ft 305 kts 133°
2026-05-05 20:32 28.58981 -96.56310 5338 ft 331 kts 132°
2026-05-05 20:33 28.57907 -96.53912 6830 ft 362 kts 109°
2026-05-05 20:33 28.57841 -96.50951 8385 ft 387 kts 82°
2026-05-05 20:33 28.58942 -96.48144 10326 ft 387 kts 53°
2026-05-05 20:33 28.60924 -96.46167 12388 ft 374 kts 27°
2026-05-05 20:34 28.63296 -96.45276 14273 ft 356 kts
2026-05-05 20:34 28.65739 -96.44992 15838 ft 353 kts 359°
2026-05-05 20:34 28.68172 -96.44810 17476 ft 346 kts 359°
2026-05-05 20:34 28.70584 -96.44455 18738 ft 359 kts
2026-05-05 20:35 28.73160 -96.43759 18864 ft 398 kts 10°
2026-05-05 20:35 28.75816 -96.42845 18876 ft 409 kts 13°
2026-05-05 20:35 28.78563 -96.41907 18877 ft 413 kts 10°
2026-05-05 20:35 28.81368 -96.41159 18880 ft 417 kts
2026-05-05 20:36 28.84222 -96.40431 18868 ft 423 kts
2026-05-05 20:36 28.87106 -96.39580 18868 ft 429 kts 10°
2026-05-05 20:36 28.90001 -96.38688 18876 ft 432 kts 10°
2026-05-05 20:36 28.92888 -96.37854 18875 ft 435 kts
2026-05-05 20:37 28.95848 -96.37030 18876 ft 438 kts
2026-05-05 20:37 28.97818 -96.36465 18877 ft 436 kts
2026-05-05 20:37 29.01710 -96.35315 18876 ft 428 kts
2026-05-05 20:37 29.04577 -96.34485 18880 ft 432 kts
2026-05-05 20:38 29.07514 -96.33645 18883 ft 435 kts
2026-05-05 20:38 29.10464 -96.32791 18903 ft 438 kts
2026-05-05 20:38 29.13432 -96.31924 18887 ft 440 kts
2026-05-05 20:38 29.16371 -96.31068 18892 ft 442 kts
2026-05-05 20:39 29.19376 -96.30198 18891 ft 443 kts
2026-05-05 20:39 29.22389 -96.29323 18892 ft 445 kts
2026-05-05 20:39 29.25367 -96.28456 18894 ft 446 kts
2026-05-05 20:39 29.28393 -96.27574 18896 ft 447 kts
2026-05-05 20:40 29.31389 -96.26702 18892 ft 448 kts
2026-05-05 20:40 29.34426 -96.25817 18887 ft 449 kts
2026-05-05 20:40 29.36435 -96.25231 18885 ft 443 kts
2026-05-05 20:40 29.39334 -96.24376 18885 ft 423 kts
2026-05-05 20:41 29.42134 -96.23557 18871 ft 406 kts
2026-05-05 20:41 29.44822 -96.22777 18854 ft 391 kts
2026-05-05 20:41 29.47433 -96.22016 18837 ft 378 kts
2026-05-05 20:41 29.49924 -96.21196 18834 ft 372 kts 14°
2026-05-05 20:42 29.52299 -96.19895 18835 ft 389 kts 25°
2026-05-05 20:42 29.54520 -96.18068 18320 ft 404 kts 38°
2026-05-05 20:42 29.56455 -96.15693 17568 ft 407 kts 50°
2026-05-05 20:42 29.57970 -96.12945 16795 ft 406 kts 59°
2026-05-05 20:43 29.59293 -96.10115 16096 ft 402 kts 60°
2026-05-05 20:43 29.60606 -96.07326 15851 ft 386 kts 59°
2026-05-05 20:43 29.61864 -96.04686 15841 ft 365 kts 59°
2026-05-05 20:43 29.63052 -96.02190 15725 ft 350 kts 59°
2026-05-05 20:44 29.64207 -95.99753 15321 ft 349 kts 59°
2026-05-05 20:44 29.65368 -95.97298 14930 ft 346 kts 59°
2026-05-05 20:44 29.66516 -95.94870 14567 ft 343 kts 59°
2026-05-05 20:44 29.67643 -95.92487 14194 ft 341 kts 59°
2026-05-05 20:45 29.69902 -95.87708 13454 ft 336 kts 60°
2026-05-05 20:45 29.71017 -95.85346 13016 ft 334 kts 60°
2026-05-05 20:45 29.72117 -95.83016 12629 ft 331 kts 60°
2026-05-05 20:46 29.73216 -95.80686 12239 ft 329 kts 60°
2026-05-05 20:46 29.74304 -95.78377 11853 ft 326 kts 61°
2026-05-05 20:46 29.75365 -95.76125 11480 ft 322 kts 61°
2026-05-05 20:46 29.76461 -95.73798 10622 ft 333 kts 62°
2026-05-05 20:47 29.77578 -95.71426 9906 ft 336 kts 62°
2026-05-05 20:47 29.78652 -95.69140 9672 ft 320 kts 62°
2026-05-05 20:47 29.79690 -95.66930 9509 ft 302 kts 62°
2026-05-05 20:47 29.80687 -95.64809 8974 ft 302 kts 62°
2026-05-05 20:48 29.81659 -95.62737 8749 ft 292 kts 62°
2026-05-05 20:48 29.82624 -95.60680 8461 ft 295 kts 63°
2026-05-05 20:48 29.83611 -95.58574 8181 ft 302 kts 62°
2026-05-05 20:48 29.84620 -95.56419 7878 ft 308 kts 63°
2026-05-05 20:49 29.85644 -95.54228 7468 ft 312 kts 62°
2026-05-05 20:49 29.86647 -95.52075 7394 ft 295 kts 63°
2026-05-05 20:49 29.87608 -95.50009 6878 ft 297 kts 63°
2026-05-05 20:49 29.88556 -95.47980 6130 ft 278 kts 62°
2026-05-05 20:50 29.89672 -95.46278 5864 ft 250 kts 46°
2026-05-05 20:50 29.90972 -95.45015 5863 ft 247 kts 36°
2026-05-05 20:50 29.92356 -95.43812 5861 ft 254 kts 37°
2026-05-05 20:50 29.93794 -95.42541 5880 ft 265 kts 37°
2026-05-05 20:51 29.95280 -95.41241 5880 ft 272 kts 37°
2026-05-05 20:51 29.96813 -95.39909 5881 ft 278 kts 37°
2026-05-05 20:51 29.98360 -95.38558 5879 ft 271 kts 37°
2026-05-05 20:51 29.99857 -95.37238 5873 ft 276 kts 37°
2026-05-05 20:52 30.01392 -95.35862 5890 ft 283 kts 38°
2026-05-05 20:52 30.02940 -95.34488 6025 ft 278 kts 36°
2026-05-05 20:52 30.04494 -95.33153 5987 ft 284 kts 37°
2026-05-05 20:52 30.06067 -95.31745 5997 ft 287 kts 38°
2026-05-05 20:53 30.07646 -95.30315 5999 ft 289 kts 38°
2026-05-05 20:53 30.09241 -95.28880 5998 ft 291 kts 38°
2026-05-05 20:53 30.10817 -95.27410 5991 ft 291 kts 45°
2026-05-05 20:53 30.11851 -95.25464 5985 ft 287 kts 75°
2026-05-05 20:54 30.12161 -95.23179 6001 ft 283 kts 90°
2026-05-05 20:54 30.12266 -95.20939 6001 ft 284 kts 91°
2026-05-05 20:54 30.12346 -95.18649 6004 ft 284 kts 92°
2026-05-05 20:54 30.12409 -95.16351 5754 ft 290 kts 91°
2026-05-05 20:55 30.12477 -95.14096 5268 ft 275 kts 91°
2026-05-05 20:55 30.12555 -95.11932 4779 ft 265 kts 91°
2026-05-05 20:55 30.12625 -95.09828 4310 ft 259 kts 92°
2026-05-05 20:55 30.12676 -95.07765 3998 ft 249 kts 92°
2026-05-05 20:56 30.12761 -95.05855 3990 ft 232 kts 92°
2026-05-05 20:56 30.12428 -95.04173 3986 ft 202 kts 128°
2026-05-05 20:56 30.11391 -95.03291 3984 ft 178 kts 169°
2026-05-05 20:56 30.10187 -95.03171 3984 ft 171 kts 181°
2026-05-05 20:57 30.09013 -95.03128 3983 ft 165 kts 184°
2026-05-05 20:57 30.07875 -95.03073 3985 ft 161 kts 181°
2026-05-05 20:57 30.06788 -95.03035 3990 ft 154 kts 181°
2026-05-05 20:57 30.05747 -95.03004 3998 ft 146 kts 181°
2026-05-05 20:58 30.04694 -95.02969 3977 ft 156 kts 181°
2026-05-05 20:58 30.03593 -95.02943 4008 ft 160 kts 182°
2026-05-05 20:58 30.02498 -95.02910 4000 ft 157 kts 182°
2026-05-05 20:58 30.01450 -95.03033 3960 ft 149 kts 208°
2026-05-05 20:59 30.00825 -95.03933 4008 ft 145 kts 241°
2026-05-05 20:59 30.00435 -95.04984 4005 ft 142 kts 242°
2026-05-05 20:59 30.00041 -95.06018 3988 ft 139 kts 242°
2026-05-05 20:59 29.99641 -95.07047 3889 ft 144 kts 241°
2026-05-05 21:00 29.99236 -95.08124 3778 ft 147 kts 241°
2026-05-05 21:00 29.98838 -95.09208 3695 ft 141 kts 242°
2026-05-05 21:00 29.98662 -95.10288 3553 ft 142 kts 270°
2026-05-05 21:00 29.98865 -95.11380 3440 ft 140 kts 272°
2026-05-05 21:01 29.99120 -95.12503 3169 ft 151 kts 277°
2026-05-05 21:01 29.99411 -95.13686 2998 ft 148 kts 277°
2026-05-05 21:01 29.99698 -95.14763 2967 ft 135 kts 278°
2026-05-05 21:01 29.99848 -95.15785 2977 ft 130 kts 268°
2026-05-05 21:02 29.99942 -95.16920 3023 ft 154 kts 264°
2026-05-05 21:02 29.99928 -95.18040 3099 ft 121 kts 259°
2026-05-05 21:02 29.99911 -95.19009 2796 ft 121 kts 259°
2026-05-05 21:02 29.99904 -95.19974 2565 ft 119 kts 259°
2026-05-05 21:03 29.99861 -95.20909 2310 ft 119 kts 253°
2026-05-05 21:03 29.99749 -95.21874 2026 ft 124 kts 253°
2026-05-05 21:03 29.99643 -95.22871 1837 ft 125 kts 254°
2026-05-05 21:03 29.99542 -95.23878 1659 ft 126 kts 249°
2026-05-05 21:04 29.99412 -95.24873 1544 ft 124 kts 253°
2026-05-05 21:04 29.99343 -95.25849 1380 ft 121 kts 261°
2026-05-05 21:04 29.99346 -95.26818 1200 ft 123 kts 260°
2026-05-05 21:04 29.99351 -95.27815 1029 ft 124 kts 258°
2026-05-05 21:05 29.99320 -95.28818 833 ft 128 kts 262°
2026-05-05 21:05 29.99348 -95.29929 591 ft 158 kts 265°
2026-05-05 21:05 29.99353 -95.31113 376 ft 139 kts 266°
2026-05-05 21:05 29.99352 -95.32193 185 ft 132 kts 263°
2026-05-05 21:06 29.99346 -95.33222 110 ft 117 kts 262°
2026-05-05 21:06 29.99341 -95.34020 100 ft 83 kts 270°
2026-05-05 21:06 29.99342 -95.34601 101 ft 63 kts 269°
2026-05-05 21:06 29.99343 -95.35061 103 ft 52 kts 269°
2026-05-05 21:07 29.99318 -95.35276 102 ft 8 kts 185°
2026-05-05 21:07 29.99287 -95.35277 102 ft 0 kts 181°
2026-05-05 21:07 29.99273 -95.35277 102 ft 6 kts 180°
2026-05-05 21:07 29.99173 -95.35318 102 ft 19 kts 258°
2026-05-05 21:08 29.99177 -95.35457 101 ft 7 kts 257°
2026-05-05 21:08 29.99175 -95.35464 101 ft 0 kts 253°
2026-05-05 21:08 29.99167 -95.35477 101 ft 0 kts 228°
2026-05-05 21:08 29.99158 -95.35487 101 ft 0 kts 214°
2026-05-05 21:09 29.99156 -95.35490 101 ft 6 kts 233°
2026-05-05 21:09 29.99161 -95.35668 101 ft 21 kts 274°
2026-05-05 21:10 29.99162 -95.35699 101 ft 0 kts 273°
2026-05-05 21:10 29.99164 -95.35715 101 ft 18 kts 275°
2026-05-05 21:10 29.99173 -95.35874 101 ft 30 kts 268°
2026-05-05 21:10 29.99119 -95.36034 101 ft 13 kts 240°
2026-05-05 21:11 29.99064 -95.36076 101 ft 4 kts 163°
2026-05-05 21:11 29.98942 -95.36003 102 ft 36 kts 153°
2026-05-05 21:11 29.98751 -95.35908 103 ft 27 kts 150°
2026-05-05 21:11 29.98562 -95.35791 102 ft 32 kts 152°
2026-05-05 21:12 29.98364 -95.35670 101 ft 33 kts 150°
2026-05-05 21:12 29.98227 -95.35584 101 ft 0 kts 152°
2026-05-05 21:12 29.98195 -95.35565 101 ft 21 kts 153°
2026-05-05 21:12 29.98035 -95.35474 102 ft 24 kts 162°
2026-05-05 21:13 29.97853 -95.35464 102 ft 28 kts 182°
2026-05-05 21:13 29.97678 -95.35486 101 ft 18 kts 213°
2026-05-05 21:13 29.97591 -95.35558 101 ft 16 kts 165°
2026-05-05 21:13 29.97481 -95.35492 101 ft 19 kts 152°
2026-05-05 21:14 29.97358 -95.35417 101 ft 21 kts 153°
2026-05-05 21:14 29.97221 -95.35333 100 ft 23 kts 152°
2026-05-05 21:14 29.97080 -95.35247 101 ft 19 kts 153°
2026-05-05 21:14 29.96957 -95.35172 100 ft 21 kts 152°
2026-05-05 21:15 29.96864 -95.35134 101 ft 10 kts 209°
2026-05-05 21:15 29.96816 -95.35208 101 ft 12 kts 214°
2026-05-05 21:15 29.96800 -95.35217 101 ft 0 kts 195°
2026-05-05 21:17 29.96800 -95.35218 95 ft 0 kts 195°